Time,TemperatureF,DewpointF,PressureIn,WindDirection,WindDirectionDegrees,WindSpeedMPH,WindSpeedGustMPH,Humidity,HourlyPrecipIn,Conditions,Clouds,dailyrainin,SoftwareType,DateUTC
2013-02-10 00:01:00,31.0,19.0,30.40,North,350,0.0,-999.0,61,-99.99,,,-99.99,,2013-02-10 05:01:00,
2013-02-10 00:11:00,31.0,19.0,30.40,North,350,0.0,-999.0,61,-99.99,,,-99.99,,2013-02-10 05:11:00,
2013-02-10 00:23:00,31.0,19.0,30.40,North,350,0.0,-999.0,61,-99.99,,,-99.99,,2013-02-10 05:23:00,
2013-02-10 00:32:00,30.0,19.0,30.40,North,350,0.0,-999.0,62,-99.99,,,-99.99,,2013-02-10 05:32:00,
2013-02-10 00:42:00,30.0,19.0,30.40,North,350,0.0,-999.0,62,-99.99,,,-99.99,,2013-02-10 05:42:00,
2013-02-10 00:52:00,30.0,19.0,30.40,North,350,0.0,-999.0,62,-99.99,,,-99.99,,2013-02-10 05:52:00,
2013-02-10 01:02:00,30.0,19.0,30.40,North,350,0.0,-999.0,64,-99.99,,,-99.99,,2013-02-10 06:02:00,
2013-02-10 01:11:00,30.0,19.0,30.40,North,350,0.0,-999.0,64,-99.99,,,-99.99,,2013-02-10 06:11:00,
2013-02-10 01:21:00,30.0,19.0,30.40,North,350,0.0,-999.0,64,-99.99,,,-99.99,,2013-02-10 06:21:00,
2013-02-10 01:32:00,30.0,19.0,30.41,North,350,0.0,-999.0,62,-99.99,,,-99.99,,2013-02-10 06:32:00,
2013-02-10 01:42:00,30.0,19.0,30.41,North,350,0.0,-999.0,62,-99.99,,,-99.99,,2013-02-10 06:42:00,
2013-02-10 01:52:00,30.0,19.0,30.40,North,350,0.0,-999.0,62,-99.99,,,-99.99,,2013-02-10 06:52:00,
2013-02-10 02:01:00,30.0,18.0,30.41,North,350,0.0,-999.0,61,-99.99,,,-99.99,,2013-02-10 07:01:00,
2013-02-10 02:11:00,30.0,18.0,30.41,North,350,0.0,-999.0,61,-99.99,,,-99.99,,2013-02-10 07:11:00,
2013-02-10 02:21:00,30.0,19.0,30.42,North,350,0.0,-999.0,62,-99.99,,,-99.99,,2013-02-10 07:21:00,
2013-02-10 02:32:00,30.0,19.0,30.43,North,350,0.0,-999.0,63,-99.99,,,-99.99,,2013-02-10 07:32:00,
2013-02-10 02:42:00,30.0,19.0,30.43,North,350,0.0,-999.0,63,-99.99,,,-99.99,,2013-02-10 07:42:00,
2013-02-10 02:51:00,29.0,18.0,30.42,North,350,0.0,-999.0,63,-99.99,,,-99.99,,2013-02-10 07:51:00,
2013-02-10 03:01:00,29.0,18.0,30.43,North,350,0.0,-999.0,64,-99.99,,,-99.99,,2013-02-10 08:01:00,
2013-02-10 03:11:00,29.0,18.0,30.43,North,350,0.0,-999.0,64,-99.99,,,-99.99,,2013-02-10 08:11:00,
2013-02-10 03:21:00,28.0,18.0,30.43,North,350,0.0,-999.0,66,-99.99,,,-99.99,,2013-02-10 08:21:00,
2013-02-10 03:32:00,28.0,19.0,30.42,North,350,0.0,-999.0,69,-99.99,,,-99.99,,2013-02-10 08:32:00,
2013-02-10 03:43:00,28.0,19.0,30.42,North,350,0.0,-999.0,69,-99.99,,,-99.99,,2013-02-10 08:43:00,
2013-02-10 03:52:00,28.0,19.0,30.42,North,350,0.0,-999.0,68,-99.99,,,-99.99,,2013-02-10 08:52:00,
2013-02-10 04:02:00,28.0,19.0,30.42,North,350,0.0,-999.0,68,-99.99,,,-99.99,,2013-02-10 09:02:00,
2013-02-10 04:11:00,28.0,19.0,30.42,North,350,0.0,-999.0,68,-99.99,,,-99.99,,2013-02-10 09:11:00,
2013-02-10 04:21:00,27.0,20.0,30.42,North,350,0.0,-999.0,73,-99.99,,,-99.99,,2013-02-10 09:21:00,
2013-02-10 04:32:00,27.0,19.0,30.43,North,350,0.0,-999.0,72,-99.99,,,-99.99,,2013-02-10 09:32:00,
2013-02-10 04:42:00,27.0,19.0,30.43,North,350,0.0,-999.0,72,-99.99,,,-99.99,,2013-02-10 09:42:00,
2013-02-10 04:51:00,27.0,20.0,30.42,North,350,0.0,-999.0,73,-99.99,,,-99.99,,2013-02-10 09:51:00,
2013-02-10 05:01:00,27.0,20.0,30.43,North,350,0.0,-999.0,73,-99.99,,,-99.99,,2013-02-10 10:01:00,
2013-02-10 05:11:00,27.0,20.0,30.44,North,350,0.0,-999.0,75,-99.99,,,-99.99,,2013-02-10 10:11:00,
2013-02-10 05:21:00,27.0,20.0,30.44,North,350,0.0,-999.0,75,-99.99,,,-99.99,,2013-02-10 10:21:00,
2013-02-10 05:32:00,27.0,20.0,30.45,North,350,0.0,-999.0,73,-99.99,,,-99.99,,2013-02-10 10:32:00,
2013-02-10 05:42:00,27.0,20.0,30.45,North,350,0.0,-999.0,73,-99.99,,,-99.99,,2013-02-10 10:42:00,
2013-02-10 05:51:00,27.0,20.0,30.46,North,350,0.0,-999.0,73,-99.99,,,-99.99,,2013-02-10 10:51:00,
2013-02-10 06:01:00,26.0,19.0,30.46,North,350,0.0,-999.0,74,-99.99,,,-99.99,,2013-02-10 11:01:00,
2013-02-10 06:11:00,26.0,19.0,30.46,North,350,0.0,-999.0,74,-99.99,,,-99.99,,2013-02-10 11:11:00,
2013-02-10 06:22:00,26.0,19.0,30.45,North,350,0.0,-999.0,75,-99.99,,,-99.99,,2013-02-10 11:22:00,
2013-02-10 06:32:00,26.0,19.0,30.46,North,350,0.0,-999.0,76,-99.99,,,-99.99,,2013-02-10 11:32:00,
2013-02-10 06:42:00,26.0,19.0,30.46,North,350,0.0,-999.0,76,-99.99,,,-99.99,,2013-02-10 11:42:00,
2013-02-10 06:52:00,26.0,19.0,30.45,North,350,0.0,-999.0,76,-99.99,,,-99.99,,2013-02-10 11:52:00,
2013-02-10 07:02:00,25.0,19.0,30.46,North,350,0.0,-999.0,77,-99.99,,,-99.99,,2013-02-10 12:02:00,
2013-02-10 07:12:00,25.0,19.0,30.46,North,350,0.0,-999.0,77,-99.99,,,-99.99,,2013-02-10 12:12:00,
2013-02-10 07:21:00,25.0,19.0,30.47,North,350,0.0,-999.0,78,-99.99,,,-99.99,,2013-02-10 12:21:00,
2013-02-10 07:32:00,25.0,19.0,30.47,North,350,0.0,-999.0,79,-99.99,,,-99.99,,2013-02-10 12:32:00,
2013-02-10 07:42:00,25.0,19.0,30.47,North,350,0.0,-999.0,79,-99.99,,,-99.99,,2013-02-10 12:42:00,
2013-02-10 07:52:00,25.0,20.0,30.48,North,350,0.0,-999.0,80,-99.99,,,-99.99,,2013-02-10 12:52:00,
2013-02-10 08:02:00,25.0,20.0,30.48,North,350,0.0,-999.0,80,-99.99,,,-99.99,,2013-02-10 13:02:00,
2013-02-10 08:12:00,25.0,20.0,30.48,North,350,0.0,-999.0,80,-99.99,,,-99.99,,2013-02-10 13:12:00,
2013-02-10 08:21:00,26.0,20.0,30.48,North,350,0.0,-999.0,79,-99.99,,,-99.99,,2013-02-10 13:21:00,
2013-02-10 08:31:00,27.0,22.0,30.49,North,350,0.0,-999.0,80,-99.99,,,-99.99,,2013-02-10 13:31:00,
2013-02-10 08:42:00,27.0,22.0,30.49,North,350,0.0,-999.0,80,-99.99,,,-99.99,,2013-02-10 13:42:00,
2013-02-10 08:51:00,28.0,22.0,30.50,North,349,0.0,-999.0,78,-99.99,,,-99.99,,2013-02-10 13:51:00,
2013-02-10 09:02:00,30.0,21.0,30.50,North,350,0.0,-999.0,68,-99.99,,,-99.99,,2013-02-10 14:02:00,
2013-02-10 09:11:00,30.0,21.0,30.50,North,350,0.0,-999.0,68,-99.99,,,-99.99,,2013-02-10 14:11:00,
2013-02-10 09:21:00,32.0,21.0,30.51,North,350,0.0,-999.0,63,-99.99,,,-99.99,,2013-02-10 14:21:00,
2013-02-10 09:32:00,34.0,21.0,30.51,WNW,298,1.0,-999.0,59,-99.99,,,-99.99,,2013-02-10 14:32:00,
2013-02-10 09:42:00,34.0,21.0,30.51,WNW,298,1.0,-999.0,59,-99.99,,,-99.99,,2013-02-10 14:42:00,
2013-02-10 09:52:00,35.0,20.0,30.52,West,275,0.0,-999.0,54,-99.99,,,-99.99,,2013-02-10 14:52:00,
2013-02-10 10:02:00,35.0,20.0,30.51,West,266,0.0,-999.0,55,-99.99,,,-99.99,,2013-02-10 15:02:00,
2013-02-10 10:11:00,35.0,20.0,30.51,West,266,0.0,-999.0,55,-99.99,,,-99.99,,2013-02-10 15:11:00,
2013-02-10 10:22:00,36.0,21.0,30.51,West,266,0.0,-999.0,54,-99.99,,,-99.99,,2013-02-10 15:22:00,
2013-02-10 10:32:00,36.0,21.0,30.51,SE,135,1.0,-999.0,54,-99.99,,,-99.99,,2013-02-10 15:32:00,
2013-02-10 10:42:00,36.0,21.0,30.51,SE,135,1.0,-999.0,54,-99.99,,,-99.99,,2013-02-10 15:42:00,
2013-02-10 10:52:00,37.0,21.0,30.51,SE,145,1.0,-999.0,53,-99.99,,,-99.99,,2013-02-10 15:52:00,
2013-02-10 11:02:00,38.0,22.0,30.51,South,188,1.0,-999.0,53,-99.99,,,-99.99,,2013-02-10 16:02:00,
2013-02-10 11:12:00,38.0,22.0,30.51,South,190,2.0,-999.0,52,-99.99,,,-99.99,,2013-02-10 16:12:00,
2013-02-10 11:22:00,38.0,22.0,30.51,South,190,2.0,-999.0,52,-99.99,,,-99.99,,2013-02-10 16:22:00,
2013-02-10 11:32:00,39.0,21.0,30.50,SSE,163,2.0,-999.0,49,-99.99,,,-99.99,,2013-02-10 16:32:00,
2013-02-10 11:42:00,39.0,21.0,30.50,SW,215,2.0,-999.0,49,-99.99,,,-99.99,,2013-02-10 16:42:00,
2013-02-10 11:52:00,39.0,21.0,30.50,SW,215,2.0,-999.0,49,-99.99,,,-99.99,,2013-02-10 16:52:00,
2013-02-10 12:02:00,40.0,22.0,30.49,South,175,2.0,-999.0,49,-99.99,,,-99.99,,2013-02-10 17:02:00,
2013-02-10 12:12:00,40.0,22.0,30.49,South,175,2.0,-999.0,49,-99.99,,,-99.99,,2013-02-10 17:12:00,
2013-02-10 12:22:00,40.0,22.0,30.49,South,175,2.0,-999.0,49,-99.99,,,-99.99,,2013-02-10 17:22:00,
2013-02-10 12:32:00,40.0,21.0,30.46,South,173,2.0,-999.0,47,-99.99,,,-99.99,,2013-02-10 17:32:00,
2013-02-10 12:42:00,41.0,23.0,30.46,SSW,201,1.0,-999.0,48,-99.99,,,-99.99,,2013-02-10 17:42:00,
2013-02-10 12:53:00,41.0,23.0,30.46,SSW,201,1.0,-999.0,48,-99.99,,,-99.99,,2013-02-10 17:53:00,
2013-02-10 13:02:00,42.0,22.0,30.45,South,171,1.0,-999.0,45,-99.99,,,-99.99,,2013-02-10 18:02:00,
2013-02-10 13:12:00,43.0,22.0,30.45,WSW,242,1.0,-999.0,42,-99.99,,,-99.99,,2013-02-10 18:12:00,
2013-02-10 13:22:00,43.0,22.0,30.45,WSW,242,1.0,-999.0,42,-99.99,,,-99.99,,2013-02-10 18:22:00,
2013-02-10 13:32:00,43.0,22.0,30.45,WSW,242,1.0,-999.0,42,-99.99,,,-99.99,,2013-02-10 18:32:00,
2013-02-10 13:42:00,43.0,22.0,30.45,WSW,242,1.0,-999.0,42,-99.99,,,-99.99,,2013-02-10 18:42:00,
2013-02-10 13:52:00,45.0,23.0,30.44,South,171,1.0,-999.0,42,-99.99,,,-99.99,,2013-02-10 18:52:00,
2013-02-10 14:02:00,45.0,23.0,30.42,West,261,2.0,-999.0,41,-99.99,,,-99.99,,2013-02-10 19:02:00,
2013-02-10 14:12:00,46.0,24.0,30.42,SSW,209,1.0,-999.0,41,-99.99,,,-99.99,,2013-02-10 19:12:00,
2013-02-10 14:22:00,46.0,24.0,30.42,SSW,209,1.0,-999.0,41,-99.99,,,-99.99,,2013-02-10 19:22:00,
2013-02-10 14:32:00,46.0,24.0,30.41,SW,223,2.0,-999.0,41,-99.99,,,-99.99,,2013-02-10 19:32:00,
2013-02-10 14:42:00,47.0,24.0,30.40,South,169,1.0,-999.0,40,-99.99,,,-99.99,,2013-02-10 19:42:00,
2013-02-10 14:52:00,47.0,24.0,30.40,South,169,1.0,-999.0,40,-99.99,,,-99.99,,2013-02-10 19:52:00,
2013-02-10 15:02:00,47.0,24.0,30.38,SE,142,2.0,-999.0,40,-99.99,,,-99.99,,2013-02-10 20:02:00,
2013-02-10 15:11:00,47.0,24.0,30.38,SE,142,2.0,-999.0,40,-99.99,,,-99.99,,2013-02-10 20:11:00,
2013-02-10 15:22:00,47.0,23.0,30.39,South,180,2.0,-999.0,39,-99.99,,,-99.99,,2013-02-10 20:22:00,
2013-02-10 15:32:00,49.0,24.0,30.38,SSE,150,2.0,-999.0,37,-99.99,,,-99.99,,2013-02-10 20:32:00,
2013-02-10 15:42:00,49.0,24.0,30.38,SE,139,2.0,-999.0,37,-99.99,,,-99.99,,2013-02-10 20:42:00,
2013-02-10 15:52:00,49.0,24.0,30.38,SE,139,2.0,-999.0,37,-99.99,,,-99.99,,2013-02-10 20:52:00,
2013-02-10 16:02:00,49.0,25.0,30.37,ESE,115,2.0,-999.0,38,-99.99,,,-99.99,,2013-02-10 21:02:00,
2013-02-10 16:12:00,49.0,25.0,30.37,ESE,115,2.0,-999.0,38,-99.99,,,-99.99,,2013-02-10 21:12:00,
2013-02-10 16:22:00,48.0,24.0,30.36,SE,143,2.0,-999.0,38,-99.99,,,-99.99,,2013-02-10 21:22:00,
2013-02-10 16:32:00,48.0,23.0,30.35,South,174,2.0,-999.0,37,-99.99,,,-99.99,,2013-02-10 21:32:00,
2013-02-10 16:42:00,48.0,23.0,30.35,South,174,2.0,-999.0,37,-99.99,,,-99.99,,2013-02-10 21:42:00,
2013-02-10 16:52:00,48.0,23.0,30.35,South,174,2.0,-999.0,37,-99.99,,,-99.99,,2013-02-10 21:52:00,
2013-02-10 17:02:00,48.0,22.0,30.36,South,191,2.0,-999.0,36,-99.99,,,-99.99,,2013-02-10 22:02:00,
2013-02-10 17:12:00,48.0,23.0,30.35,SSE,161,2.0,-999.0,37,-99.99,,,-99.99,,2013-02-10 22:12:00,
2013-02-10 17:22:00,48.0,23.0,30.35,SSE,161,2.0,-999.0,37,-99.99,,,-99.99,,2013-02-10 22:22:00,
2013-02-10 17:32:00,48.0,24.0,30.35,SW,214,3.0,-999.0,39,-99.99,,,-99.99,,2013-02-10 22:32:00,
2013-02-10 17:42:00,47.0,24.0,30.35,South,185,2.0,-999.0,40,-99.99,,,-99.99,,2013-02-10 22:42:00,
2013-02-10 17:52:00,47.0,24.0,30.35,South,185,2.0,-999.0,40,-99.99,,,-99.99,,2013-02-10 22:52:00,
2013-02-10 18:02:00,47.0,24.0,30.35,SE,130,1.0,-999.0,40,-99.99,,,-99.99,,2013-02-10 23:02:00,
2013-02-10 18:12:00,47.0,24.0,30.35,SE,130,1.0,-999.0,40,-99.99,,,-99.99,,2013-02-10 23:12:00,
2013-02-10 18:22:00,47.0,25.0,30.35,SSW,196,0.0,-999.0,42,-99.99,,,-99.99,,2013-02-10 23:22:00,
2013-02-10 18:32:00,46.0,25.0,30.35,SSW,196,0.0,-999.0,43,-99.99,,,-99.99,,2013-02-10 23:32:00,
2013-02-10 18:42:00,46.0,25.0,30.35,SSW,196,0.0,-999.0,43,-99.99,,,-99.99,,2013-02-10 23:42:00,
2013-02-10 18:52:00,46.0,25.0,30.35,SSW,196,0.0,-999.0,43,-99.99,,,-99.99,,2013-02-10 23:52:00,
2013-02-10 19:02:00,45.0,25.0,30.35,SSW,196,0.0,-999.0,46,-99.99,,,-99.99,,2013-02-11 00:02:00,
2013-02-10 19:11:00,45.0,27.0,30.34,SSW,195,0.0,-999.0,48,-99.99,,,-99.99,,2013-02-11 00:11:00,
2013-02-10 19:22:00,45.0,27.0,30.34,SSW,195,0.0,-999.0,48,-99.99,,,-99.99,,2013-02-11 00:22:00,
2013-02-10 19:32:00,44.0,25.0,30.34,SE,144,1.0,-999.0,46,-99.99,,,-99.99,,2013-02-11 00:32:00,
2013-02-10 19:42:00,45.0,25.0,30.33,South,183,1.0,-999.0,46,-99.99,,,-99.99,,2013-02-11 00:42:00,
2013-02-10 19:51:00,45.0,25.0,30.33,South,183,1.0,-999.0,46,-99.99,,,-99.99,,2013-02-11 00:51:00,
2013-02-10 20:01:00,45.0,26.0,30.33,SW,217,1.0,-999.0,47,-99.99,,,-99.99,,2013-02-11 01:01:00,
2013-02-10 20:11:00,45.0,26.0,30.33,SW,217,1.0,-999.0,47,-99.99,,,-99.99,,2013-02-11 01:11:00,
2013-02-10 20:21:00,45.0,26.0,30.34,SSE,166,1.0,-999.0,47,-99.99,,,-99.99,,2013-02-11 01:21:00,
2013-02-10 20:32:00,44.0,26.0,30.34,SSE,166,0.0,-999.0,48,-99.99,,,-99.99,,2013-02-11 01:32:00,
2013-02-10 20:42:00,44.0,26.0,30.34,South,177,1.0,-999.0,48,-99.99,,,-99.99,,2013-02-11 01:42:00,
2013-02-10 20:52:00,44.0,26.0,30.34,South,177,1.0,-999.0,48,-99.99,,,-99.99,,2013-02-11 01:52:00,
2013-02-10 21:01:00,44.0,26.0,30.34,South,177,0.0,-999.0,49,-99.99,,,-99.99,,2013-02-11 02:01:00,
2013-02-10 21:11:00,44.0,26.0,30.34,South,177,0.0,-999.0,49,-99.99,,,-99.99,,2013-02-11 02:11:00,
2013-02-10 21:21:00,44.0,27.0,30.34,South,177,0.0,-999.0,51,-99.99,,,-99.99,,2013-02-11 02:21:00,
2013-02-10 21:32:00,43.0,28.0,30.34,South,177,0.0,-999.0,54,-99.99,,,-99.99,,2013-02-11 02:32:00,
2013-02-10 21:42:00,43.0,28.0,30.33,South,177,0.0,-999.0,55,-99.99,,,-99.99,,2013-02-11 02:42:00,
2013-02-10 21:52:00,43.0,28.0,30.33,South,177,0.0,-999.0,55,-99.99,,,-99.99,,2013-02-11 02:52:00,
2013-02-10 22:02:00,42.0,27.0,30.32,South,177,1.0,-999.0,56,-99.99,,,-99.99,,2013-02-11 03:02:00,
2013-02-10 22:11:00,42.0,27.0,30.32,South,177,1.0,-999.0,56,-99.99,,,-99.99,,2013-02-11 03:11:00,
2013-02-10 22:21:00,42.0,28.0,30.32,SSE,150,1.0,-999.0,57,-99.99,,,-99.99,,2013-02-11 03:21:00,
2013-02-10 22:32:00,42.0,29.0,30.31,SE,129,1.0,-999.0,59,-99.99,,,-99.99,,2013-02-11 03:32:00,
2013-02-10 22:42:00,42.0,30.0,30.30,South,180,1.0,-999.0,61,-99.99,,,-99.99,,2013-02-11 03:42:00,
2013-02-10 22:52:00,42.0,30.0,30.30,South,180,1.0,-999.0,61,-99.99,,,-99.99,,2013-02-11 03:52:00,
2013-02-10 23:02:00,42.0,30.0,30.30,SE,131,1.0,-999.0,62,-99.99,,,-99.99,,2013-02-11 04:02:00,
2013-02-10 23:11:00,42.0,30.0,30.30,SE,131,1.0,-999.0,62,-99.99,,,-99.99,,2013-02-11 04:11:00,
2013-02-10 23:22:00,42.0,30.0,30.30,SSW,200,1.0,-999.0,62,-99.99,,,-99.99,,2013-02-11 04:22:00,
2013-02-10 23:32:00,43.0,31.0,30.29,SSE,160,1.0,-999.0,62,-99.99,,,-99.99,,2013-02-11 04:32:00,
2013-02-10 23:42:00,43.0,31.0,30.29,SSE,160,1.0,-999.0,62,-99.99,,,-99.99,,2013-02-11 04:42:00,
2013-02-10 23:52:00,43.0,31.0,30.29,SE,141,1.0,-999.0,63,-99.99,,,-99.99,,2013-02-11 04:52:00,